• In Russia
  • List of Countries
  • For 7 days
  • Water Temperature
  • Satellite Maps
  • Weather Map
  • Weather Widgets
  • user-avatar
    Login

    Hourly Weather Lankaran

    Today, 22 July, Sunday

    Time Temperature Precipitation Wind Pressure Humidity
    00:00 +17°C° 0 mm 3 mps 631 mmHg 81%
    01:00 +17°C° 0 mm 2 mps 631 mmHg 82%
    02:00 +17°C° 0 mm 2 mps 631 mmHg 82%
    03:00 +17°C° 0 mm 2 mps 631 mmHg 82%
    04:00 +17°C° 0 mm 3 mps 631 mmHg 81%
    05:00 +17°C° 0 mm 3 mps 631 mmHg 80%
    06:00 +18°C° 0 mm 3 mps 632 mmHg 78%
    07:00 +19°C° 0 mm 3 mps 632 mmHg 72%
    08:00 +20°C° 0 mm 3 mps 632 mmHg 66%
    09:00 +22°C° 0 mm 4 mps 633 mmHg 59%
    10:00 +23°C° 0 mm 4 mps 633 mmHg 56%
    11:00 +25°C° 0 mm 4 mps 633 mmHg 52%
    12:00 +26°C° 0 mm 4 mps 633 mmHg 48%
    13:00 +26°C° 0 mm 4 mps 632 mmHg 48%
    14:00 +26°C° 0 mm 4 mps 632 mmHg 48%
    15:00 +26°C° 0 mm 4 mps 632 mmHg 48%
    16:00 +25°C° 0 mm 3 mps 631 mmHg 54%
    17:00 +24°C° 0 mm 3 mps 631 mmHg 59%
    18:00 +21°C° 0 mm 3 mps 630 mmHg 64%
    19:00 +20°C° 0 mm 2 mps 630 mmHg 69%
    20:00 +19°C° 0 mm 2 mps 630 mmHg 75%
    21:00 +19°C° 0 mm 1 mps 630 mmHg 80%
    22:00 +19°C° 0 mm 1 mps 630 mmHg 80%
    23:00 +19°C° 0 mm 1 mps 630 mmHg 80%

    Tomorrow, 23 July, Monday

    Time Temperature Precipitation Wind Pressure Humidity
    00:00 +19°C° 0 mm 1 mps 630 mmHg 79%
    01:00 +18°C° 0 mm 1 mps 630 mmHg 79%
    02:00 +17°C° 0 mm 2 mps 630 mmHg 79%
    03:00 +17°C° 0 mm 2 mps 630 mmHg 78%
    04:00 +17°C° 0 mm 2 mps 630 mmHg 77%
    05:00 +18°C° 0 mm 2 mps 630 mmHg 75%
    06:00 +18°C° 0 mm 2 mps 631 mmHg 73%
    07:00 +20°C° 0 mm 2 mps 631 mmHg 65%
    08:00 +21°C° 0 mm 2 mps 631 mmHg 56%
    09:00 +24°C° 0 mm 3 mps 632 mmHg 48%
    10:00 +25°C° 0 mm 3 mps 631 mmHg 44%
    11:00 +26°C° 0 mm 3 mps 631 mmHg 40%
    12:00 +28°C° 0 mm 3 mps 631 mmHg 36%
    13:00 +28°C° 0 mm 3 mps 631 mmHg 37%
    14:00 +28°C° 0 mm 4 mps 631 mmHg 37%
    15:00 +28°C° 0 mm 4 mps 630 mmHg 37%
    16:00 +27°C° 0 mm 3 mps 630 mmHg 41%
    17:00 +26°C° 0 mm 3 mps 629 mmHg 45%
    18:00 +24°C° 0 mm 2 mps 629 mmHg 49%
    19:00 +23°C° 0 mm 2 mps 629 mmHg 53%
    20:00 +21°C° 0 mm 2 mps 629 mmHg 56%
    21:00 +21°C° 0 mm 1 mps 629 mmHg 60%
    22:00 +20°C° 0 mm 1 mps 629 mmHg 59%
    23:00 +20°C° 0 mm 1 mps 629 mmHg 59%

    Day after tomorrow, 24 July, Tuesday

    Time Temperature Precipitation Wind Pressure Humidity
    00:00 +20°C° 0 mm 1 mps 629 mmHg 58%
    01:00 +20°C° 0 mm 1 mps 630 mmHg 57%
    02:00 +20°C° 0 mm 1 mps 630 mmHg 56%
    03:00 +20°C° 0 mm 1 mps 630 mmHg 54%
    04:00 +21°C° 0 mm 1 mps 630 mmHg 53%
    05:00 +20°C° 0 mm 2 mps 630 mmHg 53%
    06:00 +20°C° 0 mm 2 mps 630 mmHg 52%
    07:00 +23°C° 0 mm 2 mps 631 mmHg 48%
    08:00 +25°C° 0 mm 2 mps 631 mmHg 44%
    09:00 +26°C° 0 mm 2 mps 632 mmHg 40%
    10:00 +27°C° 0 mm 2 mps 632 mmHg 37%
    11:00 +29°C° 0 mm 3 mps 632 mmHg 34%
    12:00 +30°C° 0 mm 3 mps 632 mmHg 32%
    13:00 +30°C° 0 mm 3 mps 632 mmHg 33%
    14:00 +30°C° 0 mm 3 mps 632 mmHg 34%
    15:00 +30°C° 0 mm 3 mps 631 mmHg 35%
    16:00 +29°C° 0 mm 3 mps 631 mmHg 39%
    17:00 +28°C° 0 mm 3 mps 631 mmHg 44%
    18:00 +27°C° 0 mm 3 mps 631 mmHg 49%
    19:00 +25°C° 0 mm 2 mps 631 mmHg 54%
    20:00 +24°C° 0 mm 2 mps 631 mmHg 59%
    21:00 +22°C° 0 mm 1 mps 631 mmHg 64%
    22:00 +22°C° 0 mm 1 mps 631 mmHg 64%
    23:00 +22°C° 0 mm 1 mps 631 mmHg 64%

    25 July, Wednesday

    Time Temperature Precipitation Wind Pressure Humidity
    00:00 +21°C° 0 mm 1 mps 631 mmHg 64%
    01:00 +21°C° 0 mm 1 mps 631 mmHg 65%
    02:00 +21°C° 0 mm 1 mps 631 mmHg 65%
    03:00 +20°C° 0 mm 1 mps 631 mmHg 66%
    04:00 +21°C° 0 mm 1 mps 631 mmHg 62%
    05:00 +22°C° 0 mm 1 mps 632 mmHg 59%
    06:00 +23°C° 0 mm 1 mps 632 mmHg 55%
    07:00 +25°C° 0 mm 1 mps 632 mmHg 49%
    08:00 +27°C° 0 mm 2 mps 633 mmHg 43%
    09:00 +29°C° 0 mm 2 mps 633 mmHg 37%
    10:00 +30°C° 0 mm 3 mps 633 mmHg 35%
    11:00 +31°C° 0 mm 3 mps 633 mmHg 32%
    12:00 +34°C° 0 mm 3 mps 633 mmHg 29%
    13:00 +34°C° 0 mm 3 mps 633 mmHg 29%
    14:00 +34°C° 0 mm 3 mps 632 mmHg 30%
    15:00 +34°C° 0 mm 4 mps 632 mmHg 30%
    16:00 +33°C° 0 mm 3 mps 632 mmHg 35%
    17:00 +30°C° 0 mm 3 mps 631 mmHg 40%
    18:00 +29°C° 0 mm 3 mps 631 mmHg 44%
    19:00 +27°C° 0 mm 2 mps 631 mmHg 50%
    20:00 +26°C° 0 mm 2 mps 631 mmHg 56%
    21:00 +24°C° 0 mm 1 mps 631 mmHg 62%
    22:00 +24°C° 0 mm 1 mps 631 mmHg 60%
    23:00 +24°C° 0 mm 1 mps 631 mmHg 59%

    26 July, Thursday

    Time Temperature Precipitation Wind Pressure Humidity
    00:00 +24°C° 0 mm 1 mps 631 mmHg 57%
    01:00 +24°C° 0 mm 1 mps 631 mmHg 58%
    02:00 +24°C° 0 mm 1 mps 631 mmHg 59%
    03:00 +23°C° 0 mm 1 mps 631 mmHg 60%
    04:00 +24°C° 0 mm 1 mps 631 mmHg 59%
    05:00 +24°C° 0 mm 1 mps 631 mmHg 59%
    06:00 +24°C° 0 mm 1 mps 632 mmHg 58%
    07:00 +26°C° 0 mm 1 mps 632 mmHg 50%
    08:00 +28°C° 0 mm 2 mps 633 mmHg 42%
    09:00 +30°C° 0 mm 2 mps 633 mmHg 34%
    10:00 +31°C° 0 mm 3 mps 633 mmHg 32%
    11:00 +33°C° 0 mm 3 mps 633 mmHg 30%
    12:00 +34°C° 0 mm 4 mps 633 mmHg 28%
    13:00 +34°C° 0 mm 4 mps 633 mmHg 30%
    14:00 +34°C° 0 mm 4 mps 633 mmHg 31%
    15:00 +34°C° 0 mm 4 mps 632 mmHg 33%
    16:00 +33°C° 0 mm 4 mps 632 mmHg 39%
    17:00 +30°C° 0 mm 3 mps 632 mmHg 44%
    18:00 +29°C° 0 mm 3 mps 632 mmHg 50%
    19:00 +27°C° 0 mm 2 mps 632 mmHg 55%
    20:00 +26°C° 0 mm 2 mps 632 mmHg 61%
    21:00 +24°C° 0 mm 1 mps 631 mmHg 67%
    22:00 +24°C° 0 mm 1 mps 632 mmHg 64%
    23:00 +24°C° 0 mm 1 mps 632 mmHg 61%

    27 July, Friday

    Time Temperature Precipitation Wind Pressure Humidity
    00:00 +24°C° 0 mm 1 mps 632 mmHg 57%
    01:00 +24°C° 0 mm 1 mps 632 mmHg 56%
    02:00 +24°C° 0 mm 1 mps 632 mmHg 54%
    03:00 +24°C° 0 mm 1 mps 632 mmHg 52%
    04:00 +24°C° 0 mm 2 mps 632 mmHg 51%
    05:00 +24°C° 0 mm 2 mps 632 mmHg 50%
    06:00 +24°C° 0 mm 2 mps 632 mmHg 49%
    07:00 +26°C° 0 mm 2 mps 633 mmHg 44%
    08:00 +27°C° 0 mm 3 mps 633 mmHg 39%
    09:00 +29°C° 0 mm 3 mps 634 mmHg 34%
    10:00 +30°C° 0 mm 4 mps 634 mmHg 31%
    11:00 +32°C° 0 mm 4 mps 634 mmHg 29%
    12:00 +33°C° 0 mm 5 mps 634 mmHg 26%
    13:00 +33°C° 0 mm 5 mps 634 mmHg 26%
    14:00 +33°C° 0 mm 4 mps 633 mmHg 26%
    15:00 +33°C° 0 mm 4 mps 633 mmHg 26%
    16:00 +30°C° 0 mm 4 mps 633 mmHg 29%
    17:00 +29°C° 0 mm 4 mps 633 mmHg 32%
    18:00 +27°C° 0 mm 3 mps 632 mmHg 34%
    19:00 +26°C° 0 mm 3 mps 632 mmHg 37%
    20:00 +24°C° 0 mm 2 mps 632 mmHg 40%
    21:00 +23°C° 0 mm 2 mps 632 mmHg 43%
    22:00 +23°C° 0 mm 2 mps 632 mmHg 39%
    23:00 +23°C° 0 mm 2 mps 632 mmHg 35%
    Show more